TimeCST,TemperatureF,Dew PointF,Humidity,Sea Level PressureIn,VisibilityMPH,Wind Direction,Wind SpeedMPH,Gust SpeedMPH,PrecipitationIn,Events,Conditions,WindDirDegrees,DateUTC
12:53 AM,25.0,19.9,81,30.22,10.0,NW,3.5,-,N/A,,Clear,320,2013-02-12 06:53:00
1:53 AM,25.0,19.9,81,30.20,10.0,NW,3.5,-,N/A,,Clear,310,2013-02-12 07:53:00
2:53 AM,25.0,19.0,78,30.18,10.0,Calm,Calm,-,N/A,,Clear,0,2013-02-12 08:53:00
3:53 AM,24.1,19.9,84,30.16,10.0,Calm,Calm,-,N/A,,Clear,0,2013-02-12 09:53:00
4:53 AM,25.0,19.9,81,30.18,10.0,Calm,Calm,-,N/A,,Clear,0,2013-02-12 10:53:00
5:53 AM,25.0,19.9,81,30.17,10.0,WNW,3.5,-,N/A,,Scattered Clouds,290,2013-02-12 11:53:00
6:53 AM,25.0,19.9,81,30.17,10.0,Calm,Calm,-,N/A,,Clear,0,2013-02-12 12:53:00
7:53 AM,25.0,19.9,81,30.18,10.0,Calm,Calm,-,N/A,,Clear,0,2013-02-12 13:53:00
8:53 AM,28.0,21.9,78,30.17,10.0,Calm,Calm,-,N/A,,Clear,0,2013-02-12 14:53:00
9:53 AM,30.0,24.1,79,30.14,10.0,Calm,Calm,-,N/A,,Clear,0,2013-02-12 15:53:00
10:53 AM,34.0,25.0,70,30.15,10.0,Calm,Calm,-,N/A,,Clear,0,2013-02-12 16:53:00
11:53 AM,39.0,24.1,55,30.14,10.0,SSW,3.5,-,N/A,,Clear,200,2013-02-12 17:53:00
12:53 PM,41.0,21.9,47,30.11,10.0,South,3.5,-,N/A,,Clear,170,2013-02-12 18:53:00
1:53 PM,43.0,21.0,42,30.08,10.0,SSW,4.6,-,N/A,,Clear,200,2013-02-12 19:53:00
2:53 PM,44.1,21.0,40,30.05,10.0,South,4.6,-,N/A,,Overcast,170,2013-02-12 20:53:00
3:53 PM,44.6,19.4,37,30.01,10.0,SSW,4.6,-,N/A,,Overcast,200,2013-02-12 21:53:00
4:53 PM,44.1,21.9,42,30.02,10.0,SSW,4.6,-,N/A,,Mostly Cloudy,200,2013-02-12 22:53:00
5:53 PM,43.0,21.9,43,30.01,10.0,SW,3.5,-,N/A,,Overcast,220,2013-02-12 23:53:00
6:53 PM,39.9,21.9,49,30.02,10.0,South,4.6,-,N/A,,Clear,180,2013-02-13 00:53:00
7:53 PM,39.0,21.9,50,30.01,10.0,SW,3.5,-,N/A,,Clear,220,2013-02-13 01:53:00
8:53 PM,36.0,21.9,57,30.01,10.0,SSW,4.6,-,N/A,,Clear,200,2013-02-13 02:53:00
9:53 PM,35.1,21.9,59,30.00,10.0,SSW,3.5,-,N/A,,Clear,200,2013-02-13 03:53:00
10:53 PM,28.9,24.1,82,30.00,10.0,Calm,Calm,-,N/A,,Clear,0,2013-02-13 04:53:00
11:53 PM,30.0,21.9,72,29.99,10.0,SW,3.5,-,N/A,,Clear,230,2013-02-13 05:53:00